Regional Weather Roundup
Issued by NWS

Home | Current Version | Previous Version | Graphics & Text | Print | Product List | Glossary On
Versions: 1 2 3 4 5 6 7 8 9 10 11 12 13 14 15 16 17 18 19 20 21 22 23 24 25 26 27 28 29 30 31 32 33 34 35 36 37 38 39 40 41 42 43 44 45 46 47 48 49 50
000
ASUS43 KBIS 241259
RWRND

NORTH DAKOTA REGIONAL WEATHER ROUNDUP
NATIONAL WEATHER SERVICE BISMARCK ND
700 AM CST MON NOV 24 2014

NOTE: "FAIR" INDICATES FEW OR NO CLOUDS BELOW 12,000 FEET WITH NO
SIGNIFICANT WEATHER AND/OR OBSTRUCTIONS TO VISIBILITY.


NDZ001>003-009>011-017-241400-
NORTHWEST NORTH DAKOTA

CITY           SKY/WX    TMP DP  RH WIND       PRES   REMARKS
WILLISTON      CLOUDY     7   3  84 CALM      29.90R
MINOT          CLEAR      6   0  76 W10       29.85R WCI  -9
$$

NDZ018>021-031>035-040>046-241400-
SOUTHWEST NORTH DAKOTA

CITY           SKY/WX    TMP DP  RH WIND       PRES   REMARKS
BISMARCK       PTCLDY    12   7  80 NW12      29.83R WCI  -2
GARRISON         N/A      5   1  83 NW9       29.83R WCI  -9
HETTINGER ARPT CLOUDY    13  11  92 NW9       29.81R WCI   1
$$

NDZ004>008-012>016-024-026-027-054-241400-
NORTHEAST NORTH DAKOTA

CITY           SKY/WX    TMP DP  RH WIND       PRES   REMARKS
GRAND FORKS    CLOUDY     8   3  80 N26G35    29.69R WCI -14
DEVILS LAKE    CLEAR      7  -6  56 N20G26    29.72R WCI -13
$$

NDZ022-023-025-028>030-036>039-047>053-241400-
SOUTHEAST NORTH DAKOTA

CITY           SKY/WX    TMP DP  RH WIND       PRES   REMARKS
FARGO          LGT SNOW  12   7  80 N22G32    29.66R WCI  -7
$$




USA.gov is the U.S. government's official web portal to all federal, state and local government web resources and services.